+ View the NASA Portal
+ Center for Near-Earth Object Studies
IMPORTANT:
The SSD Announcement email list is now available. Major changes are coming in the near future, including possible hostname and/or URL changes. To be notified of such changes, subscribe to this email list.
Please visit
this page
for more details.
Don't show this message again
JPL Small-Body Database Browser
Search:
[
help
]
277655 (2006 BP141)
Classification:
Main-belt Asteroid
SPK-ID:
2277655
[
Ephemeris
|
Orbit Diagram
|
Orbital Elements
|
Mission Design
|
Physical Parameters
|
Discovery Circumstances
|
Close-Approach Data
]
[ show orbit diagram ]
Orbital Elements at Epoch 2458600.5 (2019-Apr-27.0) TDB
Reference:
JPL 18
(heliocentric ecliptic J2000)
Element
Value
Uncertainty (1-sigma)
Units
e
.04366756946220419
4.3832e-08
a
2.948423660201797
3.2199e-08
au
q
2.819673165215928
1.4011e-07
au
i
7.921998418431714
5.8062e-06
deg
node
326.7446900105691
3.4729e-05
deg
peri
94.05590573148623
7.5117e-05
deg
M
292.6998511504207
6.6373e-05
deg
t
p
2458946.197932593746
(2020-Apr-06.69793259)
0.00034123
TDB
period
1849.197332563203
5.06
3.0292e-05
8.293e-08
d
yr
n
.1946790608339231
3.189e-09
deg/d
Q
3.077174155187665
3.3605e-08
au
Orbit Determination Parameters
# obs. used (total)
279
data-arc span
6806 days (18.63 yr)
first obs. used
2001-03-18
last obs. used
2019-11-05
planetary ephem.
DE431
SB-pert. ephem.
SB431-N16
condition code
0
norm. resid. RMS
.56868
source
ORB
producer
Otto Matic
solution date
2019-Dec-04 20:11:08
Additional Information
Earth MOID
= 1.84614 au
Jupiter MOID
= 2.07439 au
T_jup
= 3.255
[ show covariance matrix ]
[
Ephemeris
|
Orbit Diagram
|
Orbital Elements
|
Mission Design
|
Physical Parameters
|
Discovery Circumstances
|
Close-Approach Data
]
Physical Parameter Table
Parameter
Symbol
Value
Units
Sigma
Reference
Notes
absolute magnitude
H
15.7
n/a
MPO455060
277655 (2006 BP141)
Discovered 2006-Jan-25 by Spacewatch at Kitt Peak
Reference:
20110517/Numbers.arc
Last Updated:
2011-05-20
[ show close-approach data ]
[
Ephemeris
|
Orbit Diagram
|
Orbital Elements
|
Mission Design
|
Physical Parameters
|
Discovery Circumstances
|
Close-Approach Data
]
2019-Dec-14 16:03 UT
(server date/time)
Site Manager:
Ryan S. Park
Webmaster
:
Alan B. Chamberlin